Regional Weather Roundup
Issued by NWS Columbia, SC

Home | Current Version | Previous Version | Text Only | Print | Product List | Glossary On
Versions: 1 2 3 4 5 6 7 8 9 10 11 12 13 14 15 16 17 18 19 20 21 22 23 24 25 26 27
000
ASUS42 KCAE 242010
RWRCAE
REGIONAL WEATHER ROUNDUP
NATIONAL WEATHER SERVICE COLUMBIA SC
300 PM EST FRI NOV 24 2017

NOTE: "FAIR" INDICATES FEW OR NO CLOUDS BELOW 12,000 FEET WITH NO
SIGNIFICANT WEATHER AND/OR OBSTRUCTIONS TO VISIBILITY.

NOT ALL STATIONS ARE QUALITY CONTROLLED BY THE NATIONAL
WEATHER SERVICE. USE DATA WITH CAUTION...ESPECIALLY
DEWPOINT OBSERVATIONS.

SCZ001>056-GAZ040-063>065-077-242100-
...UPSTATE SOUTH CAROLINA...

CITY           SKY/WX    TMP DP  RH WIND       PRES   REMARKS
ANDERSON       SUNNY     60  36  40 VRB3      29.95F
LIBERTY        CLEAR     62  36  38 SW5       29.94F
SPARTANBURG    SUNNY     59  32  36 CALM      29.95F
CLEMSON        SUNNY     58  38  47 VRB5      29.95F
GREENVILLE     SUNNY     61  34  36 SW3       29.95F
GREENWOOD      SUNNY     59  33  37 CALM      29.96F
GREER          SUNNY     59  33  37 S6        29.96F
ROCK HILL      SUNNY     60  34  37 N3        29.96F
CHESTER        CLEAR     59  32  36 CALM      29.96F
LAURENS        CLEAR     61  34  36 CALM      29.95F


...CENTRAL SOUTH CAROLINA...

CITY           SKY/WX    TMP DP  RH WIND       PRES   REMARKS
COLUMBIA APT   MOSUNNY   64  35  34 VRB3      29.94F
COLUMBIA OWENS SUNNY     63  33  32 CALM      29.95F
MCENTIRE ANGB  SUNNY     62  32  32 N7        29.94F HAZE
ORANGEBURG     SUNNY     62  34  35 VRB6      29.94F
SUMTER SHAW    SUNNY     63  30  29 N9        29.92F
NEWBERRY       CLEAR     61  34  36 CALM      29.98F
AIKEN          FAIR      61  32  33 N6        29.98F
BARNWELL         N/A     64  36  34 N7        29.94F
MANNING        FAIR      61  32  33 MISG      29.94F
CAMDEN         FAIR      61  32  33 CALM      29.95F
LANCASTER      CLEAR     61  32  33 CALM      29.96F
WINNSBORO      CLEAR     61  34  36 N3        29.95F


...EASTERN AND COASTAL SOUTH CAROLINA...

CITY           SKY/WX    TMP DP  RH WIND       PRES   REMARKS
MYRTLE BEACH   MOSUNNY   61  29  29 N12       29.93S
N MYRTLE BCH   CLOUDY    60  32  34 N7        29.92S
CONWAY         FAIR      59  32  36 N5        29.94S HAZE
MARION         FAIR      59  30  33 N6        29.95S
HARTSVILLE     FAIR      61  32  33 NE5       29.94F
FLORENCE       SUNNY     62  28  27 N8        29.95F
DARLINGTON     SUNNY     61  31  32 N7        29.95F
CHARLESTON APT MOSUNNY   62  37  39 N12       29.92S
MOUNT PLEASANT FAIR      63  37  39 NW8       29.91S
WALTERBORO     CLEAR     63  34  34 N8        29.93F
BEAUFORT       SUNNY     66  35  31 N13       29.92F


...EASTERN GEORGIA...

CITY           SKY/WX    TMP DP  RH WIND       PRES   REMARKS
AUGUSTA BUSH F SUNNY     65  35  33 N6        29.93F
AUGUSTA DANIEL SUNNY     65  35  33 VRB6      29.95F
THOMSON        SUNNY     60  36  39 E5        30.00F
WASHINGTON     FAIR      59  37  44 CALM      29.95F
CLAXTON        FAIR      67  38  35 NW6       29.94F
SYLVANIA       CLEAR     65  38  38 N7        29.94F
STATESBORO     SUNNY     65  31  27 N9        29.94F
SAVANNAH       MOSUNNY   66  39  37 N8        29.92F


...SOUTHERN NORTH CAROLINA...

CITY           SKY/WX    TMP DP  RH WIND       PRES   REMARKS
CHARLOTTE      MOSUNNY   59  32  36 SE3       29.96F
MONROE         SUNNY     60  32  34 N5        29.95F
WADESBORO      CLEAR     61  30  31 NW3       29.96F
RUTHERFORDTON  SUNNY     58  32  36 S10       29.95F
ASHEVILLE      SUNNY     62  33  33 CALM      29.92F

$$




USA.gov is the U.S. government's official web portal to all federal, state and local government web resources and services.